Zurück zum Katalog

COSMOS 397 DEB

AktivLEO
NORAD 5155·DEBRIS·🇷🇺 Russia

Gestartet Feb 25, 1971 von Baikonur Cosmodrome

Loading…

Nächste Überflüge (nächste 24 Stunden)

TLE

AktuellSource: Space-Track

Epoche: Sep 13, 2026, 20:25 UTC

1 05155U 71015AJ  26256.85132257  .00003777  00000-0  43737-3 0  9995
2 05155  65.3511  65.7749 0289235 308.9264  48.6371 14.61208485760683

Verfolge COSMOS 397 DEB in Echtzeit mit AllMySat

Download on the App Store